Lakeview AWS, OR

9:32 PM PDT on March 24, 2017 (GMT -0700)
Lake County

Weather History for KLKV - June, 2013

Change the Weather History Date:

Friday, June 21, 2013

  Actual Average Record
Temperature  
Mean Temperature 47 °F -  
Max Temperature 64 °F 77 °F 92 °F (1988)
Min Temperature 30 °F 44 °F 30 °F (1984)
Degree Days  
Heating Degree Days 18    
Moisture  
Dew Point 33 °F    
Average Humidity 57    
Maximum Humidity 93    
Minimum Humidity 30    
Precipitation  
Precipitation 0.00 in - - ()
Sea Level Pressure  
Sea Level Pressure 30.13 in    
Wind  
Wind Speed 6 mph (North)    
Max Wind Speed 14 mph    
Max Gust Speed 20 mph    
Visibility 10 miles    
Events      
Averages and records for this station are not official NWS values.
T = Trace of Precipitation, MM = Missing Value Source: NWS Daily Summary

Daily Weather History Graph

Daily Weather History Graph

Search for Another Location

Airport or City:

Trip Planner

Search our weather history database for the weather conditions in past years. The results will help you decide how hot, cold, wet, or windy it might be!

Date:

Astronomy

Jun. 21, 2013 Rise Set
Actual Time 5:25 AM PDT 8:41 PM PDT
Civil Twilight 4:51 AM PDT 9:15 PM PDT
Nautical Twilight 4:06 AM PDT 10:00 PM PDT
Astronomical Twilight 3:11 AM PDT 10:55 PM PDT
Moon 6:56 PM PDT (6/21) 3:47 AM PDT (6/21)
Length of Visible Light 16h 24m
Length of Day
15h 15m
Waxing Gibbous, 96% of the Moon is Illuminated
Jun 21
Waxing Gibbous
Jun 23
Full
Jun 29
Last Quarter
Jul 8
New
Jul 15
First Quarter

Hourly Weather History & Observations

Time (PDT) Temp. Windchill Dew Point Humidity Pressure Visibility Wind Dir Wind Speed Gust Speed Precip Events Conditions
12:15 AM 35.6 °F 32.8 °F 30.2 °F 81% 30.14 in 10.0 mi NW 3.5 mph - N/A   Clear
12:35 AM 33.8 °F 27.0 °F 30.2 °F 87% 30.13 in 10.0 mi North 8.1 mph - N/A   Clear
12:55 AM 32.0 °F 24.2 °F 28.4 °F 87% 30.13 in 10.0 mi North 9.2 mph - N/A   Clear
1:15 AM 33.8 °F 26.4 °F 28.4 °F 81% 30.14 in 10.0 mi North 9.2 mph - N/A   Clear
1:35 AM 33.8 °F 26.4 °F 28.4 °F 81% 30.14 in 10.0 mi NNW 9.2 mph - N/A   Clear
1:55 AM 33.8 °F 27.0 °F 28.4 °F 81% 30.14 in 10.0 mi NNW 8.1 mph - N/A   Clear
2:15 AM 33.8 °F 28.6 °F 28.4 °F 81% 30.15 in 10.0 mi NW 5.8 mph - N/A   Clear
2:35 AM 33.8 °F 26.4 °F 28.4 °F 81% 30.15 in 10.0 mi NNW 9.2 mph - N/A   Clear
2:55 AM 33.8 °F 29.6 °F 28.4 °F 81% 30.14 in 10.0 mi NNE 4.6 mph - N/A   Clear
3:15 AM 33.8 °F 28.6 °F 28.4 °F 81% 30.14 in 10.0 mi NE 5.8 mph - N/A   Clear
3:35 AM 33.8 °F 27.0 °F 28.4 °F 81% 30.14 in 10.0 mi NNW 8.1 mph - N/A   Clear
3:55 AM 33.8 °F 27.7 °F 30.2 °F 87% 30.12 in 10.0 mi NNW 6.9 mph - N/A   Clear
4:15 AM 32.0 °F 25.6 °F 28.4 °F 87% 30.13 in 10.0 mi North 6.9 mph - N/A   Clear
4:35 AM 32.0 °F 25.6 °F 28.4 °F 87% 30.13 in 10.0 mi North 6.9 mph - N/A   Clear
4:55 AM 30.2 °F 24.3 °F 28.4 °F 93% 30.13 in 10.0 mi ENE 5.8 mph - N/A   Clear
5:15 AM 32.0 °F 27.5 °F 30.2 °F 93% 30.12 in 10.0 mi North 4.6 mph - N/A   Clear
5:35 AM 30.2 °F 25.4 °F 26.6 °F 86% 30.12 in 10.0 mi NNW 4.6 mph - N/A   Clear
5:55 AM 30.2 °F 23.4 °F 28.4 °F 93% 30.12 in 10.0 mi North 6.9 mph - N/A   Clear
6:15 AM 32.0 °F 25.6 °F 30.2 °F 93% 30.13 in 10.0 mi NNW 6.9 mph - N/A   Clear
6:35 AM 37.4 °F 33.8 °F 32.0 °F 81% 30.13 in 10.0 mi NW 4.6 mph - N/A   Clear
6:55 AM 39.2 °F - 33.8 °F 81% 30.14 in 10.0 mi Calm Calm - N/A   Clear
7:15 AM 42.8 °F - 33.8 °F 70% 30.14 in 10.0 mi Calm Calm - N/A   Clear
7:35 AM 41.0 °F - 33.8 °F 76% 30.14 in 10.0 mi Calm Calm - N/A   Clear
7:55 AM 42.8 °F - 35.6 °F 76% 30.15 in 10.0 mi Calm Calm - N/A   Clear
8:15 AM 46.4 °F - 35.6 °F 66% 30.14 in 10.0 mi Calm Calm - N/A   Clear
8:35 AM 48.2 °F - 33.8 °F 58% 30.15 in 10.0 mi Calm Calm - N/A   Clear
8:55 AM 50.0 °F - 33.8 °F 54% 30.14 in 10.0 mi NNE 5.8 mph - N/A   Clear
9:15 AM 51.8 °F - 35.6 °F 54% 30.15 in 10.0 mi ENE 3.5 mph - N/A   Clear
9:35 AM 51.8 °F - 35.6 °F 54% 30.14 in 10.0 mi Calm Calm - N/A   Clear
9:55 AM 53.6 °F - 35.6 °F 51% 30.14 in 10.0 mi NNE 4.6 mph - N/A   Clear
10:15 AM 55.4 °F - 35.6 °F 47% 30.13 in 10.0 mi SW 3.5 mph - N/A   Scattered Clouds
10:35 AM 57.2 °F - 33.8 °F 41% 30.14 in 10.0 mi South 5.8 mph - N/A   Scattered Clouds
10:55 AM 59.0 °F - 33.8 °F 39% 30.14 in 10.0 mi SW 3.5 mph - N/A   Partly Cloudy
11:15 AM 60.8 °F - 32.0 °F 34% 30.13 in 10.0 mi SW 3.5 mph - N/A   Clear
11:35 AM 59.0 °F - 32.0 °F 36% 30.13 in 10.0 mi East 5.8 mph - N/A   Scattered Clouds
11:55 AM 60.8 °F - 32.0 °F 34% 30.13 in 10.0 mi South 4.6 mph - N/A   Mostly Cloudy
12:15 PM 59.0 °F - 33.8 °F 39% 30.13 in 10.0 mi Calm Calm - N/A   Mostly Cloudy
12:35 PM 62.6 °F - 33.8 °F 34% 30.13 in 10.0 mi WSW 5.8 mph - N/A   Mostly Cloudy
12:55 PM 62.6 °F - 30.2 °F 30% 30.12 in 10.0 mi West 4.6 mph - N/A   Overcast
1:15 PM 62.6 °F - 33.8 °F 34% 30.11 in 10.0 mi SSE 9.2 mph - N/A   Mostly Cloudy
1:35 PM 62.6 °F - 32.0 °F 32% 30.11 in 10.0 mi SSE 9.2 mph - N/A   Scattered Clouds
1:55 PM 62.6 °F - 30.2 °F 30% 30.11 in 10.0 mi South 9.2 mph - N/A   Overcast
2:15 PM 62.6 °F - 30.2 °F 30% 30.11 in 10.0 mi SSW 4.6 mph - N/A   Overcast
2:35 PM 62.6 °F - 32.0 °F 32% 30.10 in 10.0 mi SE 4.6 mph - N/A   Mostly Cloudy
2:55 PM 64.4 °F - 33.8 °F 32% 30.10 in 10.0 mi ESE 4.6 mph - N/A   Mostly Cloudy
3:15 PM 64.4 °F - 32.0 °F 30% 30.10 in 10.0 mi NNW 10.4 mph - N/A   Overcast
3:35 PM 62.6 °F - 33.8 °F 34% 30.10 in 10.0 mi North 8.1 mph - N/A   Overcast
3:55 PM 62.6 °F - 33.8 °F 34% 30.10 in 10.0 mi NNW 5.8 mph - N/A   Overcast
4:15 PM 64.4 °F - 33.8 °F 32% 30.10 in 10.0 mi NNW 5.8 mph - N/A   Overcast
4:35 PM 62.6 °F - 35.6 °F 37% 30.10 in 10.0 mi North 3.5 mph 16.1 mph N/A   Overcast
4:55 PM 62.6 °F - 35.6 °F 37% 30.10 in 10.0 mi NNE 6.9 mph - N/A   Mostly Cloudy
5:15 PM 64.4 °F - 33.8 °F 32% 30.10 in 10.0 mi NNE 6.9 mph - N/A   Scattered Clouds
5:35 PM 64.4 °F - 33.8 °F 32% 30.09 in 10.0 mi NW 6.9 mph - N/A   Overcast
5:55 PM 62.6 °F - 33.8 °F 34% 30.09 in 10.0 mi North 4.6 mph - N/A   Overcast
6:15 PM 62.6 °F - 33.8 °F 34% 30.09 in 10.0 mi NNE 8.1 mph - N/A   Overcast
6:35 PM 62.6 °F - 35.6 °F 37% 30.09 in 10.0 mi NNE 6.9 mph - N/A   Overcast
6:55 PM 60.8 °F - 33.8 °F 36% 30.09 in 10.0 mi North 9.2 mph - N/A   Overcast
7:15 PM 60.8 °F - 33.8 °F 36% 30.10 in 10.0 mi North 8.1 mph - N/A   Mostly Cloudy
7:35 PM 60.8 °F - 35.6 °F 39% 30.10 in 10.0 mi North 8.1 mph - N/A   Mostly Cloudy
7:55 PM 60.8 °F - 33.8 °F 36% 30.10 in 10.0 mi North 9.2 mph - N/A   Overcast
8:15 PM 57.2 °F - 33.8 °F 41% 30.11 in 10.0 mi North 8.1 mph - N/A   Overcast
8:35 PM 57.2 °F - 33.8 °F 41% 30.11 in 10.0 mi North 13.8 mph 19.6 mph N/A   Overcast
8:55 PM 53.6 °F - 35.6 °F 51% 30.12 in 10.0 mi North 12.7 mph 18.4 mph N/A   Scattered Clouds
9:15 PM 53.6 °F - 35.6 °F 51% 30.13 in 10.0 mi North 11.5 mph - N/A   Clear
9:35 PM 51.8 °F - 35.6 °F 54% 30.13 in 10.0 mi North 11.5 mph - N/A   Clear
9:55 PM 50.0 °F - 35.6 °F 58% 30.14 in 10.0 mi North 10.4 mph - N/A   Clear
10:15 PM 48.2 °F - 33.8 °F 58% 30.15 in 10.0 mi NNW 11.5 mph - N/A   Clear
10:35 PM 46.4 °F 40.7 °F 35.6 °F 66% 30.15 in 10.0 mi NNW 12.7 mph - N/A   Clear
10:55 PM 46.4 °F 41.5 °F 35.6 °F 66% 30.15 in 10.0 mi NNW 10.4 mph - N/A   Clear
11:15 PM 46.4 °F 41.5 °F 35.6 °F 66% 30.15 in 10.0 mi North 10.4 mph - N/A   Clear
11:35 PM 46.4 °F 41.9 °F 35.6 °F 66% 30.15 in 10.0 mi North 9.2 mph - N/A   Clear
11:55 PM 44.6 °F 39.2 °F 33.8 °F 66% 30.15 in 10.0 mi NNW 10.4 mph - N/A   Clear